Torna al catalogo

ELECTRON KICK STAGE R/B

AttivoSSO
NORAD 58901·ROCKET BODY·🇺🇸 United States

Lanciato Jan 31, 2024 da Rocket Lab Launch Complex 1

Loading…

Prossimi Passaggi (prossime 24 ore)

TLE

AggiornatoSource: Space-Track

Epoca: Sep 14, 2026, 14:31 UTC

1 58901U 24022C   26257.60523706  .00060682  00000-0  58670-3 0  9995
2 58901  97.3870 118.7800 0006238 110.1262 250.0670 15.66231416146710

Traccia ELECTRON KICK STAGE R/B in tempo reale con AllMySat

Download on the App Store